Tracking 18851 objects as of 24-Nov-2017
HD Live streaming from Space Station
objects crossing your sky now

COSMOS 618

Track COSMOS 618 now!
10-day predictions
COSMOS 618 is classified as:


NORAD ID: 6986
Int'l Code: 1973-104B
Perigee: 1,451.0 km
Apogee: 1,493.2 km
Inclination: 74.0 °
Period: 115.2 minutes
Semi major axis: 7843 km
RCS: 0.6754 m2 (medium)
Launch date: December 19, 1973
Source: Commonwealth of Independent States (former USSR) (CIS)
Launch site: PLESETSK MISSILE AND SPACE COMPLEX (PKMTR)
aabbcc
Your satellite tracking list
Your tracking list is empty




NASA's NSSDC Master Catalog

Two Line Element Set (TLE):
1  6986U 73104B   17328.00485646 -.00000021 +00000-0 -31942-4 0  9996
2  6986 074.0266 167.9560 0026917 138.0045 014.2091 12.49882245004495
Source of the keplerian elements: AFSPC